Showing default

KUIPER-00247, 67152

Orbit data source: Space-Track

KUIPER-00247, 67152 is a payload satellite owned by Kuiper Systems (US) in LEO that was launched on Mon, 15 Dec 2025 UTC via an ATLAS V 551 launch vehicle from the Air Force Eastern Test Range (AFETR). Payload-class satellites include a variety of spacecraft equipped with specific instruments for various scientific and technological missions. These include communications satellites like Starlink; space stations such as the ISS; scientific satellites like the Hubble; Earth observation satellites from companies like Planet Labs, Umbra, and HawkEye 360; GPS; miniature CubeSats for education and research; and military/defense satellites.

Loading next visibility...
Identifier
67152, 2025-301V
Orbit
LEO
Country
Flag of USUS
Related business
Manufacturer
Kuiper Systems
Mission
Operational Commercial Communications
Bus & Motor
KUIPER, Unknown motor
Mass
~490 kg wet, ~490 kg dry
Launch date (UTC)
2025-12-15 (6 months ago)
Launch vehicle
ATLAS V 551
Launch site
Air Force Eastern Test Range (AFETR)
Object type
Payload
Rocket body
Debris
Shape & HBR
Box + 2 Pan, 3.4 m
Radar Cross Section
2.326 m², Large (>1 m²)

Expand to show TLE details & history
Last TLE update: 10 hours ago

TLE from 10 hours ago
0 KUIPER-00247
1 67152U 25301V   26171.44750774  .00002743  00000-0  38862-3 0  9993
2 67152  51.8980 323.6973 0000502 119.8986 240.2027 14.79937657 29057
Epoch: 2026-06-20T10:44Z
TLE epoch observation values (Epoch: 2026-06-20T10:44:24.668Z)
Latitude
0.00003°
Longitude
-106.06746°
Altitude
630.442 km
Speed
7.544 km/s
True Right ascension
21h 34m 47s
True Declination
0° 00' 00"
Sunlit
Object was in full shadow at epoch
Visualization orbit readout
Latitude
Unknown
Longitude
Unknown
Altitude
Unknown
Speed
Unknown
Apparent Right ascension
Unknown
Apparent Declination
Unknown
Sunlit
N/A
Visualization observer readout
Local Sidereal Time
07:12:47
Azimuth
Unknown
Elevation
Unknown
Doppler factor
Unknown
Orbital elements
Apogee altitude
630.324 km
Perigee altitude
629.621 km
Semi-major axis
7,008.109 km
Eccentricity
0.00005
Inclination
51.898°
RAAN
323.6973°
Arg. of periapsis
119.8986°
True anomaly
240.19771°
Mean anomaly
240.2027°
Eccentric anomaly
240.2002°
Mean motion
3.69949 °/min
Orbital period
97.31 mins
BSTAR
0.00038862
Loading maneuver chart data...
Computing Atmospheric mass density...
Loading historical data...
Loading historical data...
Loading historical data...
Loading historical data...
Loading historical data...
Loading historical data...
Loading historical data...

Documentation

Showing up to 5 results
|